• In Hungary
  • List of Countries
  • For 7 days
  • Water Temperature
  • Satellite Maps
  • Weather Map
  • News
  • Weather Widgets
  • user-avatar
    Login

    Hourly Weather Gluhovskaya

    Today, 20 July, Friday

    Time Temperature Precipitation Wind Pressure Humidity
    00:00 +20°C° 0.5 mm 1 mps 724 mmHg 87%
    01:00 +19°C° 0.5 mm 1 mps 724 mmHg 88%
    02:00 +19°C° 0.1 mm 1 mps 724 mmHg 88%
    03:00 +19°C° 0.1 mm 1 mps 724 mmHg 88%
    04:00 +19°C° 0.1 mm 1 mps 724 mmHg 89%
    05:00 +20°C° 0 mm 1 mps 725 mmHg 86%
    06:00 +21°C° 0 mm 1 mps 725 mmHg 84%
    07:00 +20°C° 0 mm 0 mps 725 mmHg 82%
    08:00 +23°C° 0.6 mm 1 mps 725 mmHg 78%
    09:00 +25°C° 0.6 mm 1 mps 725 mmHg 75%
    10:00 +26°C° 0.6 mm 1 mps 725 mmHg 71%
    11:00 +27°C° 1.2 mm 1 mps 725 mmHg 67%
    12:00 +27°C° 1.2 mm 1 mps 725 mmHg 64%
    13:00 +28°C° 1.2 mm 1 mps 725 mmHg 60%
    14:00 +28°C° 0.3 mm 1 mps 725 mmHg 59%
    15:00 +28°C° 0.3 mm 1 mps 725 mmHg 58%
    16:00 +26°C° 0.3 mm 0 mps 725 mmHg 57%
    17:00 +28°C° 0.2 mm 1 mps 725 mmHg 63%
    18:00 +27°C° 0.2 mm 1 mps 725 mmHg 69%
    19:00 +26°C° 0.2 mm 2 mps 725 mmHg 75%
    20:00 +24°C° 0.3 mm 2 mps 725 mmHg 78%
    21:00 +23°C° 0.3 mm 2 mps 725 mmHg 82%
    22:00 +20°C° 0.3 mm 2 mps 725 mmHg 86%
    23:00 +20°C° 0.8 mm 2 mps 725 mmHg 88%

    Tomorrow, 21 July, Saturday

    Time Temperature Precipitation Wind Pressure Humidity
    00:00 +19°C° 0.8 mm 2 mps 725 mmHg 90%
    01:00 +19°C° 0.8 mm 2 mps 725 mmHg 92%
    02:00 +18°C° 0.6 mm 2 mps 725 mmHg 93%
    03:00 +18°C° 0.6 mm 3 mps 725 mmHg 94%
    04:00 +18°C° 0.6 mm 3 mps 725 mmHg 95%
    05:00 +18°C° 0.5 mm 3 mps 726 mmHg 94%
    06:00 +18°C° 0.5 mm 4 mps 726 mmHg 93%
    07:00 +19°C° 0.5 mm 5 mps 726 mmHg 92%
    08:00 +20°C° 0.5 mm 5 mps 726 mmHg 90%
    09:00 +21°C° 0.5 mm 5 mps 726 mmHg 88%
    10:00 +22°C° 0.5 mm 5 mps 727 mmHg 86%
    11:00 +22°C° 0.9 mm 5 mps 727 mmHg 84%
    12:00 +23°C° 0.9 mm 5 mps 727 mmHg 82%
    13:00 +23°C° 0.9 mm 6 mps 727 mmHg 79%
    14:00 +23°C° 0.3 mm 5 mps 727 mmHg 78%
    15:00 +23°C° 0.3 mm 5 mps 727 mmHg 78%
    16:00 +23°C° 0.3 mm 5 mps 727 mmHg 77%
    17:00 +23°C° 0.3 mm 4 mps 727 mmHg 79%
    18:00 +22°C° 0.3 mm 4 mps 727 mmHg 81%
    19:00 +21°C° 0.3 mm 4 mps 727 mmHg 83%
    20:00 +20°C° 0 mm 4 mps 727 mmHg 84%
    21:00 +19°C° 0 mm 4 mps 727 mmHg 85%
    22:00 +18°C° 0 mm 4 mps 727 mmHg 86%
    23:00 +18°C° 0 mm 4 mps 727 mmHg 85%

    Day after tomorrow, 22 July, Sunday

    Time Temperature Precipitation Wind Pressure Humidity
    00:00 +16°C° 0 mm 5 mps 727 mmHg 85%
    01:00 +15°C° 0 mm 5 mps 727 mmHg 85%
    02:00 +15°C° 0 mm 5 mps 728 mmHg 85%
    03:00 +14°C° 0 mm 4 mps 728 mmHg 85%
    04:00 +14°C° 0 mm 4 mps 728 mmHg 86%
    05:00 +14°C° 0 mm 5 mps 728 mmHg 85%
    06:00 +15°C° 0 mm 5 mps 728 mmHg 84%
    07:00 +15°C° 0 mm 6 mps 728 mmHg 84%
    08:00 +16°C° 0 mm 6 mps 728 mmHg 81%
    09:00 +19°C° 0 mm 6 mps 728 mmHg 78%
    10:00 +20°C° 0 mm 6 mps 728 mmHg 75%
    11:00 +20°C° 0 mm 6 mps 729 mmHg 72%
    12:00 +21°C° 0 mm 6 mps 729 mmHg 69%
    13:00 +22°C° 0 mm 6 mps 729 mmHg 66%
    14:00 +22°C° 0 mm 6 mps 729 mmHg 65%
    15:00 +22°C° 0 mm 6 mps 729 mmHg 64%
    16:00 +22°C° 0 mm 6 mps 729 mmHg 63%
    17:00 +22°C° 0 mm 5 mps 729 mmHg 66%
    18:00 +21°C° 0 mm 4 mps 729 mmHg 70%
    19:00 +20°C° 0 mm 4 mps 729 mmHg 74%
    20:00 +18°C° 0 mm 4 mps 729 mmHg 74%
    21:00 +17°C° 0 mm 4 mps 729 mmHg 75%
    22:00 +14°C° 0 mm 4 mps 729 mmHg 75%
    23:00 +14°C° 0 mm 4 mps 729 mmHg 76%

    23 July, Monday

    Time Temperature Precipitation Wind Pressure Humidity
    00:00 +13°C° 0 mm 4 mps 729 mmHg 76%
    01:00 +12°C° 0 mm 4 mps 729 mmHg 76%
    02:00 +12°C° 0 mm 4 mps 730 mmHg 78%
    03:00 +11°C° 0 mm 4 mps 730 mmHg 80%
    04:00 +10°C° 0 mm 3 mps 730 mmHg 82%
    05:00 +11°C° 0 mm 4 mps 730 mmHg 80%
    06:00 +12°C° 0 mm 4 mps 730 mmHg 79%
    07:00 +12°C° 0 mm 4 mps 731 mmHg 77%
    08:00 +14°C° 0 mm 5 mps 731 mmHg 74%
    09:00 +15°C° 0 mm 5 mps 731 mmHg 70%
    10:00 +16°C° 0 mm 5 mps 731 mmHg 66%
    11:00 +17°C° 0 mm 5 mps 731 mmHg 64%
    12:00 +19°C° 0 mm 5 mps 731 mmHg 62%
    13:00 +20°C° 0 mm 5 mps 731 mmHg 60%
    14:00 +20°C° 0 mm 4 mps 731 mmHg 60%
    15:00 +20°C° 0 mm 4 mps 731 mmHg 60%
    16:00 +21°C° 0 mm 4 mps 731 mmHg 60%
    17:00 +20°C° 0 mm 4 mps 731 mmHg 65%
    18:00 +19°C° 0 mm 3 mps 731 mmHg 70%
    19:00 +19°C° 0 mm 3 mps 731 mmHg 75%
    20:00 +17°C° 0 mm 3 mps 731 mmHg 76%
    21:00 +16°C° 0 mm 3 mps 731 mmHg 78%
    22:00 +13°C° 0 mm 3 mps 731 mmHg 80%
    23:00 +14°C° 0 mm 2 mps 731 mmHg 81%

    24 July, Tuesday

    Time Temperature Precipitation Wind Pressure Humidity
    00:00 +13°C° 0 mm 2 mps 731 mmHg 82%
    01:00 +13°C° 0 mm 2 mps 732 mmHg 83%
    02:00 +12°C° 0 mm 2 mps 732 mmHg 82%
    03:00 +12°C° 0 mm 2 mps 732 mmHg 81%
    04:00 +12°C° 0 mm 1 mps 732 mmHg 80%
    05:00 +13°C° 0 mm 1 mps 732 mmHg 78%
    06:00 +14°C° 0 mm 2 mps 733 mmHg 77%
    07:00 +15°C° 0 mm 2 mps 733 mmHg 75%
    08:00 +17°C° 0 mm 2 mps 733 mmHg 71%
    09:00 +18°C° 0 mm 3 mps 733 mmHg 67%
    10:00 +20°C° 0 mm 3 mps 733 mmHg 64%
    11:00 +21°C° 0 mm 3 mps 733 mmHg 63%
    12:00 +22°C° 0 mm 3 mps 734 mmHg 62%
    13:00 +23°C° 0 mm 4 mps 734 mmHg 61%
    14:00 +24°C° 0 mm 3 mps 733 mmHg 61%
    15:00 +25°C° 0 mm 3 mps 733 mmHg 62%
    16:00 +25°C° 0 mm 3 mps 733 mmHg 62%
    17:00 +24°C° 0 mm 2 mps 733 mmHg 66%
    18:00 +24°C° 0 mm 2 mps 733 mmHg 71%
    19:00 +23°C° 0 mm 1 mps 733 mmHg 75%
    20:00 +22°C° 0 mm 1 mps 733 mmHg 79%
    21:00 +20°C° 0 mm 1 mps 733 mmHg 82%
    22:00 +19°C° 0 mm 1 mps 733 mmHg 85%
    23:00 +18°C° 0 mm 1 mps 733 mmHg 86%

    25 July, Wednesday

    Time Temperature Precipitation Wind Pressure Humidity
    00:00 +18°C° 0 mm 1 mps 733 mmHg 87%
    01:00 +18°C° 0 mm 1 mps 733 mmHg 89%
    02:00 +16°C° 0 mm 1 mps 733 mmHg 89%
    03:00 +16°C° 0 mm 1 mps 734 mmHg 89%
    04:00 +16°C° 0 mm 1 mps 734 mmHg 89%
    05:00 +18°C° 0 mm 1 mps 734 mmHg 87%
    06:00 +19°C° 0 mm 1 mps 734 mmHg 84%
    07:00 +20°C° 0 mm 1 mps 735 mmHg 81%
    08:00 +21°C° 0 mm 2 mps 735 mmHg 76%
    09:00 +23°C° 0 mm 2 mps 735 mmHg 71%
    10:00 +25°C° 0 mm 2 mps 735 mmHg 66%
    11:00 +26°C° 0 mm 2 mps 735 mmHg 62%
    12:00 +26°C° 0 mm 2 mps 735 mmHg 58%
    13:00 +27°C° 0 mm 2 mps 735 mmHg 53%
    14:00 +27°C° 0 mm 2 mps 735 mmHg 54%
    15:00 +27°C° 0 mm 2 mps 735 mmHg 54%
    16:00 +28°C° 0 mm 3 mps 735 mmHg 54%
    17:00 +27°C° 0.1 mm 2 mps 735 mmHg 60%
    18:00 +26°C° 0.1 mm 2 mps 734 mmHg 66%
    19:00 +25°C° 0.1 mm 2 mps 734 mmHg 72%
    20:00 +23°C° 0.1 mm 2 mps 734 mmHg 75%
    21:00 +21°C° 0.1 mm 2 mps 734 mmHg 78%
    22:00 +21°C° 0.1 mm 1 mps 734 mmHg 81%
    23:00 +20°C° 0 mm 1 mps 734 mmHg 82%
    Show more